Location: Burgwalden
(48.2830°N, 10.7576°E)
Time: 02:28:15
(UTC+00:00)

RESURS DK-1 - Pass Details

Date: 26 September 2023
Orbit: 544 x 553 km, 69.9° (Epoch: 04 December)

Event Time Altitude Azimuth Distance (km) Brightness Sun altitude
Exits shadow 03:26:12 17° 313° (NW) 1,449 4.2 -17.6°
Maximum altitude 03:26:26 17° 317° (NW) 1,446 4.2 -17.5°
Drops below altitude 10° 03:29:05 10° 358° (N) 1,824 5.2 -17.1°
Sets 03:31:58 0° 20° (NNE) 2,722 6.4 -16.7°
